Weather History for Wadena, MN

Change the Weather History Date:

Wednesday, April 23, 2014

  Actual Average Record
Temperature  
Mean Temperature 38 °F -  
Max Temperature 44 °F 55 °F 83 °F (1990)
Min Temperature 33 °F 32 °F 17 °F (2013)
Degree Days  
Heating Degree Days 26    
Moisture  
Dew Point 31 °F    
Average Humidity 76    
Maximum Humidity 100    
Minimum Humidity 49    
Precipitation  
Precipitation 0.67 in - - ()
Sea Level Pressure  
Sea Level Pressure 29.95 in    
Wind  
Wind Speed 12 mph (ESE)    
Max Wind Speed 24 mph    
Max Gust Speed 33 mph    
Visibility 8 miles    
Events Rain , Thunderstorm    
Averages and records for this station are not official NWS values.
T = Trace of Precipitation, MM = Missing Value Source: NWS Daily Summary

Daily Weather History Graph

Daily Weather History Graph

Search for Another Location

Airport:

Trip Planner

Search our weather history database for the weather conditions in past years. The results will help you decide how hot, cold, wet, or windy it might be!

Date:

Astronomy

Apr. 23, 2014 Rise Set
Actual Time 6:19 AM CDT 8:19 PM CDT
Civil Twilight 5:47 AM CDT 8:51 PM CDT
Nautical Twilight 5:07 AM CDT 9:32 PM CDT
Astronomical Twilight 4:23 AM CDT 10:16 PM CDT
Moon 3:13 AM CDT (4/23) 2:08 PM CDT (4/23)
Length of Visible Light 15h 04m
Length of Day
13h 59m
Waning Crescent, 34% of the Moon is Illuminated
Apr 23
Waning Crescent
Apr 29
New
May 6
First Quarter
May 14
Full
May 21
Last Quarter

Hourly Weather History & Observations

Time (CDT) Temp. Windchill Dew Point Humidity Pressure Visibility Wind Dir Wind Speed Gust Speed Precip Events Conditions
12:15 AM 41.0 °F 38.0 °F 24.8 °F 53% 30.03 in 10.0 mi ESE 4.6 mph - N/A   Clear
12:35 AM 39.2 °F 35.9 °F 24.8 °F 56% 30.03 in 10.0 mi ESE 4.6 mph - N/A   Clear
12:53 AM 39.2 °F 35.0 °F 26.6 °F 61% 30.03 in 10.0 mi ESE 5.8 mph - N/A   Clear
1:15 AM 39.2 °F 34.2 °F 26.6 °F 61% 30.02 in 10.0 mi ESE 6.9 mph - N/A   Clear
1:34 AM 39.2 °F 34.2 °F 24.8 °F 56% 30.02 in 10.0 mi ESE 6.9 mph - N/A   Clear
1:53 AM 39.2 °F 34.2 °F 24.8 °F 56% 30.02 in 10.0 mi ESE 6.9 mph - N/A   Clear
2:15 AM 39.2 °F 35.0 °F 24.8 °F 56% 30.02 in 10.0 mi ESE 5.8 mph - N/A   Clear
2:34 AM 39.2 °F 35.0 °F 26.6 °F 61% 30.02 in 10.0 mi ESE 5.8 mph - N/A   Clear
2:53 AM 37.4 °F 32.8 °F 26.6 °F 65% 30.01 in 10.0 mi ESE 5.8 mph - N/A   Clear
3:15 AM 39.2 °F 34.2 °F 26.6 °F 61% 30.01 in 10.0 mi ESE 6.9 mph - N/A   Clear
3:34 AM 39.2 °F 33.6 °F 26.6 °F 61% 30.01 in 10.0 mi ESE 8.1 mph - N/A   Clear
3:53 AM 39.2 °F 34.2 °F 26.6 °F 61% 30.00 in 10.0 mi ESE 6.9 mph - N/A   Clear
4:14 AM 39.2 °F 33.6 °F 26.6 °F 61% 30.01 in 10.0 mi ESE 8.1 mph - N/A   Mostly Cloudy
4:35 AM 41.0 °F 37.1 °F 26.6 °F 57% 30.02 in 10.0 mi SE 5.8 mph - N/A   Overcast
5:15 AM 42.8 °F 38.0 °F 26.6 °F 53% 30.02 in 10.0 mi SE 8.1 mph - N/A   Overcast
5:35 AM 41.0 °F 34.7 °F 26.6 °F 57% 30.01 in 10.0 mi SE 10.4 mph - N/A   Scattered Clouds
5:53 AM 41.0 °F 35.2 °F 26.6 °F 57% 30.01 in 10.0 mi SE 9.2 mph - N/A   Clear
6:15 AM 41.0 °F 34.7 °F 26.6 °F 57% 30.00 in 10.0 mi ESE 10.4 mph - N/A   Clear
6:34 AM 41.0 °F 34.7 °F 26.6 °F 57% 30.00 in 10.0 mi ESE 10.4 mph - N/A   Clear
6:53 AM 41.0 °F 34.3 °F 26.6 °F 57% 29.99 in 10.0 mi SE 11.5 mph - N/A   Clear
7:15 AM 42.8 °F 36.2 °F 26.6 °F 53% 29.99 in 10.0 mi ESE 12.7 mph 16.1 mph N/A   Clear
7:34 AM 42.8 °F 37.0 °F 26.6 °F 53% 29.99 in 10.0 mi ESE 10.4 mph - N/A   Clear
7:53 AM 42.8 °F 36.6 °F 26.6 °F 53% 30.00 in 10.0 mi SE 11.5 mph - N/A   Clear
8:14 AM 42.8 °F 36.2 °F 26.6 °F 53% 30.00 in 10.0 mi SSE 12.7 mph - N/A   Clear
8:35 AM 42.8 °F 36.2 °F 26.6 °F 53% 30.00 in 10.0 mi SE 12.7 mph 20.7 mph N/A   Clear
8:53 AM 42.8 °F 35.1 °F 26.6 °F 53% 30.00 in 10.0 mi SE 16.1 mph 20.7 mph N/A   Clear
9:15 AM 44.6 °F 37.8 °F 26.6 °F 49% 30.00 in 10.0 mi SSE 15.0 mph 21.9 mph N/A   Scattered Clouds
9:35 AM 44.6 °F 37.2 °F 28.4 °F 53% 30.00 in 10.0 mi SSE 17.3 mph 23.0 mph N/A   Mostly Cloudy
9:52 AM 42.8 °F 34.8 °F 28.4 °F 57% 29.99 in 10.0 mi SSE 17.3 mph 25.3 mph N/A Rain Light Rain
10:15 AM 42.8 °F 34.5 °F 30.2 °F 61% 29.99 in 10.0 mi SSE 18.4 mph 26.5 mph N/A Rain Light Rain
10:35 AM 42.8 °F 33.8 °F 33.8 °F 70% 29.98 in 10.0 mi SSE 21.9 mph 28.8 mph N/A Rain Light Rain
10:53 AM 42.8 °F 34.3 °F 33.8 °F 70% 29.97 in 10.0 mi SSE 19.6 mph 31.1 mph N/A   Light Drizzle
11:15 AM 42.8 °F 34.0 °F 33.8 °F 70% 29.96 in 10.0 mi SE 20.7 mph 29.9 mph N/A   Light Drizzle
11:35 AM 42.8 °F 33.8 °F 33.8 °F 70% 29.95 in 10.0 mi SE 21.9 mph 27.6 mph N/A Rain Light Rain
11:53 AM 41.0 °F 30.9 °F 35.6 °F 81% 29.95 in 10.0 mi SE 24.2 mph 33.4 mph N/A Rain Light Rain
12:14 PM 39.2 °F 29.0 °F 35.6 °F 87% 29.96 in 10.0 mi SE 21.9 mph 28.8 mph 0.01 in Rain Light Rain
12:35 PM 41.0 °F 31.9 °F 35.6 °F 81% 29.95 in 10.0 mi SE 19.6 mph 25.3 mph 0.02 in Rain Light Rain
12:53 PM 39.2 °F 30.2 °F 35.6 °F 87% 29.96 in 7.0 mi SE 17.3 mph 31.1 mph 0.03 in Rain Light Rain
1:14 PM 39.2 °F 29.0 °F 35.6 °F 87% 29.95 in 7.0 mi SE 21.9 mph 28.8 mph 0.02 in Rain Light Rain
1:34 PM 39.2 °F 29.3 °F 35.6 °F 87% 29.95 in 10.0 mi SE 20.7 mph 26.5 mph 0.04 in Rain Rain
1:53 PM 39.2 °F 30.2 °F 35.6 °F 87% 29.95 in 7.0 mi ESE 17.3 mph 23.0 mph 0.08 in Rain Rain
2:15 PM 37.4 °F 26.9 °F 35.6 °F 93% 29.93 in 7.0 mi ESE 20.7 mph 25.3 mph 0.05 in Rain Rain
2:35 PM 37.4 °F 27.2 °F 35.6 °F 93% 29.92 in 7.0 mi ESE 19.6 mph 24.2 mph 0.08 in Rain Light Rain
2:52 PM 37.4 °F 28.2 °F 35.6 °F 93% 29.93 in 5.0 mi SE 16.1 mph 25.3 mph 0.12 in Rain Rain
3:14 PM 37.4 °F 28.2 °F 35.6 °F 93% 29.94 in 4.0 mi ESE 16.1 mph 23.0 mph 0.06 in Rain Rain
3:34 PM 37.4 °F 27.5 °F 35.6 °F 93% 29.94 in 3.0 mi ESE 18.4 mph 25.3 mph 0.11 in Rain Rain
3:53 PM 37.4 °F 28.2 °F 35.6 °F 93% 29.93 in 5.0 mi ESE 16.1 mph - 0.15 in Rain Rain
4:14 PM 35.6 °F 25.5 °F 35.6 °F 100% 29.91 in 3.0 mi ESE 17.3 mph 23.0 mph 0.02 in Rain Light Rain
4:35 PM 35.6 °F 25.9 °F 33.8 °F 93% 29.90 in 3.0 mi ESE 16.1 mph 24.2 mph 0.05 in Rain Light Rain
4:53 PM 35.6 °F 25.9 °F 33.8 °F 93% 29.90 in 3.0 mi ESE 16.1 mph 25.3 mph 0.10 in Rain Rain
5:15 PM 35.6 °F 26.6 °F 33.8 °F 93% 29.90 in 7.0 mi East 13.8 mph - 0.04 in Rain Rain
5:35 PM 35.6 °F 25.9 °F 33.8 °F 93% 29.90 in 5.0 mi East 16.1 mph 21.9 mph 0.08 in Rain , Thunderstorm Light Thunderstorms and Rain
5:53 PM 35.6 °F 26.6 °F 33.8 °F 93% 29.90 in 7.0 mi ESE 13.8 mph - 0.09 in Rain Light Rain
6:15 PM 35.6 °F 27.1 °F 33.8 °F 93% 29.90 in 2.0 mi East 12.7 mph 17.3 mph 0.05 in Rain Rain
6:35 PM 33.8 °F 25.3 °F 33.8 °F 100% 29.89 in 1.8 mi East 11.5 mph - 0.09 in Rain , Thunderstorm Rain
6:52 PM 35.6 °F 26.6 °F 33.8 °F 93% 29.89 in 2.0 mi East 13.8 mph 17.3 mph 0.10 in Rain , Thunderstorm Light Thunderstorms and Rain
7:15 PM 35.6 °F 27.1 °F 35.6 °F 100% 29.89 in 4.0 mi ESE 12.7 mph 24.2 mph N/A Rain , Thunderstorm Light Thunderstorms and Rain
7:35 PM 35.6 °F 24.8 °F 35.6 °F 100% 29.87 in 10.0 mi ESE 19.6 mph 25.3 mph N/A Rain Light Rain
7:53 PM 35.6 °F 23.7 °F 35.6 °F 100% 29.86 in 10.0 mi SE 24.2 mph - N/A   Overcast
8:15 PM 37.4 °F 26.4 °F 35.6 °F 93% 29.87 in 7.0 mi SE 23.0 mph 27.6 mph N/A   Overcast
8:35 PM 37.4 °F 26.9 °F 35.6 °F 93% 29.87 in 5.0 mi SE 20.7 mph 26.5 mph N/A   Overcast
8:53 PM 37.4 °F 26.9 °F 35.6 °F 93% 29.87 in 10.0 mi ESE 20.7 mph 25.3 mph N/A   Overcast
9:15 PM 37.4 °F 27.5 °F 35.6 °F 93% 29.87 in 7.0 mi ESE 18.4 mph 26.5 mph N/A   Overcast
9:35 PM 37.4 °F 26.9 °F 35.6 °F 93% 29.87 in 5.0 mi ESE 20.7 mph 32.2 mph N/A   Overcast
9:53 PM 37.4 °F 27.5 °F 35.6 °F 93% 29.86 in 10.0 mi ESE 18.4 mph 25.3 mph N/A   Overcast
10:15 PM 37.4 °F 28.2 °F 35.6 °F 93% 29.87 in 10.0 mi ESE 16.1 mph 24.2 mph N/A Rain Light Rain
10:35 PM 37.4 °F 27.8 °F 35.6 °F 93% 29.88 in 10.0 mi ESE 17.3 mph 21.9 mph N/A Rain Light Rain
10:53 PM 37.4 °F 28.9 °F 35.6 °F 93% 29.88 in 10.0 mi ESE 13.8 mph - N/A   Drizzle
11:15 PM 37.4 °F 28.2 °F 35.6 °F 93% 29.87 in 10.0 mi ESE 16.1 mph 21.9 mph N/A Rain Light Rain
11:35 PM 37.4 °F 27.5 °F 35.6 °F 93% 29.85 in 10.0 mi ESE 18.4 mph 25.3 mph N/A   Overcast
11:52 PM 37.4 °F 28.2 °F 35.6 °F 93% 29.85 in 10.0 mi ESE 16.1 mph 20.7 mph N/A   Overcast